Effective Sunday, March 17, 2024, the National Weather Service National Data Buoy Center will discontinue its Dial-A-Buoy Interactive Voice Response system. For more information, see Service Change Notice 24-06 (PDF).

Station CLKN7 - Cape Lookout, NC Image indicating link to RSS feed of recent meteorological observations for station CLKN7


Conditions at CLKN7 as of
(7:00 pm EST on 02/27/2024)
0000 GMT on 02/28/2024:
     

Click on the graph icon in the table below to see a time series plot of the last five days of that observation.

5-day plot - Wind Direction Wind Direction (WDIR): S ( 190 deg true )
5-day plot - Wind Speed Wind Speed (WSPD): 18 kts
5-day plot - Wind Gust Wind Gust (GST): 21 kts
5-day plot - Atmospheric Pressure Atmospheric Pressure (PRES):30.06 in
5-day plot - Pressure Tendency Pressure Tendency (PTDY):-0.02 in ( Falling )
5-day plot - Air Temperature Air Temperature (ATMP): 60.4 °F
5-day plot - Wind Speed at 10 Meters Wind Speed at 10 meters (WSPD10M): 17 kts
5-day plot - Wind Speed at 20 Meters Wind Speed at 20 meters (WSPD20M): 19 kts
5-day plot -  Wind Speed, Wind Gust and Atmospheric Pressure Combined plot of Wind Speed, Gust, and Air Pressure
Continuous Winds
TIME
(EST)
5-day plot - Wind Direction WDIR 5-day plot - Wind Speed WSPD
7:00 pmS ( 190 deg ) 18 kts
6:50 pmS ( 189 deg ) 18 kts
6:40 pmS ( 185 deg ) 18 kts
6:30 pmS ( 190 deg ) 15 kts
6:20 pmS ( 187 deg ) 13 kts
6:10 pmSSW ( 196 deg ) 9 kts
 
Peak gust during the measurement hour
TIME
(EST)
5-day plot - Gust Direction GDR 5-day plot - Gust Speed GST
6:38 pmS ( 180 deg ) 22 kts
Previous observations
TIME
(EST)
5-day plot - Wind Direction
WDIR
 
5-day plot - Wind Speed
WSPD
kts
5-day plot - Wind Gust
GST
kts
5-day plot - Wave Height
WVHT
ft
5-day plot - Dominant Wave Period
DPD
sec
5-day plot - Average Wave Period
APD
sec
5-day plot - Mean Wave Direction
MWD
 
5-day plot - Atmospheric Pressure
PRES
in
5-day plot - Pressure Tendency
PTDY
in
5-day plot - Air Temperature
ATMP
°F
5-day plot - Water Temperature
WTMP
°F
5-day plot - Dew Point
DEWP
°F
5-day plot - Salinity
SAL
psu
5-day plot - Visibility
VIS
nmi
5-day plot - Tide (above MLLW)
TIDE
ft
2024-02-27 06:00 pmSSW 7 9----30.08-0.04 58.1-----
2024-02-27 05:00 pm S 12 13----30.06-0.08 57.4-----
2024-02-27 04:00 pmSSW 13 16----30.09-0.06 59.0-----
2024-02-27 03:00 pmSSW 9 12----30.11-0.04 58.5-----
2024-02-27 02:00 pm SW 9 15----30.14-0.01 60.3-----
2024-02-27 01:00 pmWSW 9 11----30.15+0.00 60.1-----
2024-02-27 12:00 pmSSW 12 17----30.15-0.01 64.6-----
2024-02-27 11:00 amSSW 15 20----30.16-0.02 64.9-----
2024-02-27 10:00 amSSW 13 17----30.15-0.02 64.4-----
2024-02-27 09:00 am S 10 14----30.17+0.01 60.1-----
2024-02-27 08:00 amSSW 10 12----30.18+0.03 59.2-----
2024-02-27 07:00 amSSW 7 9----30.17+0.03 57.4-----
2024-02-27 06:00 amSSW 8 10----30.16+0.02 57.7-----
2024-02-27 05:00 amSSW 8 10----30.15+0.00 56.8-----
2024-02-27 04:00 am SW 9 13----30.14-0.02 57.2-----
2024-02-27 03:00 amSSW 10 13----30.14-0.02 57.2-----
2024-02-27 02:00 amSSW 10 13----30.14-0.03 57.2-----
2024-02-27 01:00 amSSW 11 15----30.16-0.02 57.9-----
2024-02-27 12:00 amSSW 11 14----30.16-0.01 57.0-----
2024-02-26 11:00 pmSSW 8 10----30.17+0.00 55.4-----
2024-02-26 10:00 pmSSW 7 10----30.18+0.02 55.8-----
2024-02-26 09:00 pm SW 11 13----30.17+0.02 56.8-----
2024-02-26 08:00 pm SW 12 16----30.16+0.02 56.1-----
2024-02-26 07:00 pm SW 9 12----30.16+0.00 55.8-----